Simultaneous Nadir Overpasses (SNOs) Predictions

Prediction of SNOs over PacNW region [( 10.00, 139.50) to ( 22.70, 165.60)] between AQUA and NPP Satellites:

Table of predicted SNOs over PacNW region for the next 30.0 days since TLE Epoch: 9/17/2022
Index Date (AQUA) Time (AQUA) AQUA Lat,Lon Date (NPP) Time (NPP) NPP Lat,Lon Distance(km) Time Diff (sec)
1 09/18/2022 16:21:02 22.59, 143.32 09/18/2022 16:21:48 23.40, 139.73 379.28 46
2 09/26/2022 15:29:22 22.59, 156.28 09/26/2022 15:31:04 23.45, 152.42 406.45 102
3 09/29/2022 03:50:29 22.66, 144.13 09/29/2022 03:47:14 22.06, 141.03 325.15 195
4 10/07/2022 02:58:43 22.69, 157.11 10/07/2022 02:56:29 22.03, 153.73 354.84 134
